| time (UTC) | temp F | wind direction | speed knots | gust knots | rain 1hr in | rain 24hr in | rain mn in | humidity % | barometer mb |
| 20260831212545 | 61 | 0 | 0.0 | 3.5 | 0.00 | 0.07 | 0.07 | 87 | 1017.6 |
| 20260831212049 | 61 | 0 | 0.0 | 3.5 | 0.00 | 0.07 | 0.07 | 87 | 1017.6 |
| 20260831211559 | 61 | 0 | 0.0 | 2.6 | 0.00 | 0.07 | 0.07 | 88 | 1017.6 |
| 20260831211044 | 61 | 0 | 0.0 | 2.6 | 0.00 | 0.07 | 0.07 | 88 | 1017.5 |
| 20260831210547 | 61 | 0 | 0.0 | 2.6 | 0.00 | 0.07 | 0.07 | 88 | 1017.4 |
| 20260831210114 | 61 | 0 | 0.0 | 3.5 | 0.00 | 0.07 | 0.07 | 87 | 1017.3 |
| 20260831205546 | 61 | 0 | 0.0 | 3.5 | 0.00 | 0.07 | 0.07 | 87 | 1017.3 |
| 20260831205046 | 61 | 0 | 0.0 | 4.3 | 0.00 | 0.07 | 0.07 | 87 | 1017.3 |
| 20260831204559 | 61 | 0 | 0.0 | 4.3 | 0.00 | 0.07 | 0.07 | 86 | 1017.2 |
| 20260831204046 | 62 | 230 | 0.0 | 3.5 | 0.00 | 0.07 | 0.07 | 86 | 1017.2 |
| 20260831203544 | 62 | 0 | 0.0 | 3.5 | 0.00 | 0.07 | 0.07 | 86 | 1017.1 |
| 20260831203103 | 62 | 0 | 0.0 | 6.1 | 0.00 | 0.07 | 0.07 | 86 | 1017.0 |
| 20260831202546 | 62 | 0 | 0.0 | 6.1 | 0.00 | 0.07 | 0.07 | 86 | 1016.9 |
| 20260831202044 | 62 | 0 | 0.0 | 6.1 | 0.00 | 0.07 | 0.07 | 86 | 1016.7 |
| 20260831201606 | 62 | 0 | 0.0 | 0.0 | 0.00 | 0.07 | 0.07 | 86 | 1016.7 |
| 20260831201047 | 62 | 0 | 0.0 | 0.0 | 0.00 | 0.07 | 0.07 | 85 | 1016.6 |
| 20260831200547 | 62 | 0 | 0.0 | 2.6 | 0.00 | 0.07 | 0.07 | 86 | 1016.6 |
| 20260831200059 | 62 | 0 | 0.0 | 3.5 | 0.00 | 0.07 | 0.07 | 86 | 1016.6 |
| 20260831195545 | 62 | 0 | 0.0 | 5.2 | 0.00 | 0.07 | 0.07 | 86 | 1016.6 |
| 20260831195044 | 62 | 0 | 0.0 | 5.2 | 0.00 | 0.07 | 0.07 | 87 | 1016.5 |
| 20260831194614 | 61 | 0 | 0.0 | 5.2 | 0.00 | 0.07 | 0.07 | 87 | 1016.4 |
| 20260831194047 | 61 | 0 | 0.0 | 0.9 | 0.00 | 0.07 | 0.07 | 87 | 1016.3 |
| 20260831193543 | 61 | 0 | 0.0 | 0.0 | 0.00 | 0.07 | 0.07 | 87 | 1016.3 |
| 20260831193107 | 62 | 0 | 0.0 | 0.0 | 0.00 | 0.07 | 0.07 | 87 | 1016.3 |
| 20260831192546 | 61 | 0 | 0.0 | 0.0 | 0.00 | 0.07 | 0.07 | 87 | 1016.2 |
| 20260831192045 | 61 | 0 | 0.0 | 0.0 | 0.00 | 0.07 | 0.07 | 88 | 1016.1 |
| 20260831191605 | 61 | 0 | 0.0 | 0.0 | 0.00 | 0.07 | 0.07 | 88 | 1016.1 |
| 20260831191045 | 61 | 0 | 0.0 | 0.0 | 0.00 | 0.07 | 0.07 | 88 | 1016.1 |
| 20260831190546 | 61 | 0 | 0.0 | 0.0 | 0.00 | 0.07 | 0.07 | 88 | 1016.0 |
| 20260831190108 | 61 | 0 | 0.0 | 0.0 | 0.00 | 0.07 | 0.07 | 88 | 1015.9 |
| 20260831185545 | 61 | 0 | 0.0 | 0.0 | 0.00 | 0.07 | 0.07 | 88 | 1015.8 |
| 20260831185044 | 61 | 0 | 0.0 | 0.0 | 0.00 | 0.07 | 0.07 | 87 | 1015.7 |
| 20260831184605 | 61 | 0 | 0.0 | 0.0 | 0.00 | 0.07 | 0.07 | 87 | 1015.6 |
| 20260831184047 | 61 | 0 | 0.0 | 3.5 | 0.00 | 0.07 | 0.07 | 86 | 1015.5 |
| 20260831183546 | 62 | 0 | 0.0 | 6.1 | 0.00 | 0.07 | 0.07 | 85 | 1015.4 |
| 20260831183105 | 62 | 0 | 0.0 | 6.1 | 0.00 | 0.07 | 0.07 | 85 | 1015.2 |
| 20260831182545 | 62 | 0 | 0.0 | 3.5 | 0.00 | 0.07 | 0.07 | 85 | 1015.2 |
| 20260831182046 | 62 | 0 | 0.0 | 0.0 | 0.00 | 0.07 | 0.07 | 84 | 1015.1 |
| 20260831181600 | 62 | 0 | 0.0 | 3.5 | 0.00 | 0.07 | 0.07 | 84 | 1015.0 |
| 20260831181046 | 62 | 0 | 0.0 | 5.2 | 0.00 | 0.07 | 0.07 | 84 | 1015.0 |
| 20260831180546 | 62 | 225 | 0.0 | 5.2 | 0.00 | 0.07 | 0.07 | 84 | 1014.7 |
| 20260831180111 | 62 | 0 | 0.0 | 7.0 | 0.00 | 0.07 | 0.07 | 84 | 1014.7 |
| 20260831175548 | 62 | 0 | 0.0 | 7.0 | 0.00 | 0.07 | 0.07 | 83 | 1014.7 |
| 20260831175047 | 63 | 0 | 0.0 | 11.3 | 0.00 | 0.07 | 0.07 | 83 | 1014.6 |
| 20260831174605 | 63 | 227 | 0.9 | 11.3 | 0.00 | 0.07 | 0.07 | 82 | 1014.5 |
| 20260831174050 | 63 | 0 | 0.9 | 8.7 | 0.00 | 0.07 | 0.07 | 82 | 1014.5 |
| 20260831173546 | 63 | 0 | 1.7 | 12.2 | 0.00 | 0.07 | 0.07 | 81 | 1014.4 |
| 20260831173130 | 63 | 0 | 0.9 | 12.2 | 0.00 | 0.07 | 0.07 | 80 | 1014.3 |
| 20260831172547 | 64 | 248 | 2.6 | 10.4 | 0.00 | 0.07 | 0.07 | 80 | 1014.3 |
| 20260831172047 | 63 | 239 | 0.0 | 12.2 | 0.00 | 0.07 | 0.07 | 81 | 1014.2 |
| 20260831171558 | 64 | 0 | 0.9 | 12.2 | 0.00 | 0.07 | 0.07 | 79 | 1014.0 |
| 20260831171046 | 64 | 251 | 0.0 | 9.6 | 0.00 | 0.07 | 0.07 | 79 | 1014.0 |
| 20260831170545 | 64 | 0 | 1.7 | 10.4 | 0.00 | 0.07 | 0.07 | 78 | 1013.8 |
| 20260831170110 | 64 | 0 | 0.9 | 13.0 | 0.00 | 0.07 | 0.07 | 79 | 1013.9 |
| 20260831165544 | 64 | 257 | 0.9 | 13.0 | 0.00 | 0.07 | 0.07 | 80 | 1013.9 |
| 20260831165044 | 64 | 0 | 1.7 | 13.0 | 0.00 | 0.07 | 0.07 | 81 | 1013.7 |
| 20260831164612 | 64 | 236 | 0.9 | 8.7 | 0.00 | 0.07 | 0.07 | 84 | 1013.7 |
| 20260831164050 | 63 | 0 | 0.9 | 7.8 | 0.00 | 0.07 | 0.07 | 85 | 1013.5 |
| 20260831163546 | 63 | 0 | 0.0 | 5.2 | 0.00 | 0.07 | 0.07 | 85 | 1013.4 |
| 20260831163109 | 63 | 0 | 0.0 | 5.2 | 0.00 | 0.07 | 0.07 | 85 | 1013.4 |
| 20260831162547 | 63 | 0 | 0.0 | 5.2 | 0.00 | 0.07 | 0.07 | 85 | 1013.4 |
| 20260831162046 | 64 | 0 | 0.0 | 13.0 | 0.00 | 0.07 | 0.07 | 85 | 1013.4 |
| 20260831161606 | 64 | 0 | 0.0 | 13.0 | 0.00 | 0.07 | 0.07 | 84 | 1013.4 |
| 20260831161044 | 64 | 215 | 3.5 | 13.9 | 0.00 | 0.07 | 0.07 | 83 | 1013.4 |
| 20260831160545 | 64 | 237 | 0.9 | 13.9 | 0.00 | 0.07 | 0.07 | 84 | 1013.4 |
| 20260831160105 | 64 | 0 | 2.6 | 13.9 | 0.00 | 0.07 | 0.07 | 82 | 1013.4 |
| 20260831155546 | 64 | 258 | 1.7 | 7.0 | 0.00 | 0.07 | 0.07 | 85 | 1013.4 |
| 20260831155052 | 64 | 0 | 0.9 | 7.0 | 0.00 | 0.07 | 0.07 | 87 | 1013.3 |
| 20260831154636 | 63 | 0 | 0.9 | 6.1 | 0.00 | 0.07 | 0.07 | 87 | 1013.4 |
| 20260831154044 | 63 | 0 | 0.0 | 10.4 | 0.00 | 0.07 | 0.07 | 89 | 1013.2 |
| 20260831153546 | 63 | 0 | 0.0 | 10.4 | 0.00 | 0.07 | 0.07 | 89 | 1013.4 |
| 20260831153105 | 63 | 229 | 0.9 | 10.4 | 0.00 | 0.07 | 0.07 | 89 | 1013.3 |
| 20260831152545 | 62 | 220 | 0.0 | 5.2 | 0.00 | 0.07 | 0.07 | 90 | 1013.1 |
| 20260831152046 | 62 | 220 | 0.0 | 4.3 | 0.00 | 0.07 | 0.07 | 90 | 1013.2 |
| 20260831151607 | 62 | 0 | 0.0 | 4.3 | 0.03 | 0.07 | 0.07 | 91 | 1013.0 |
| 20260831151046 | 62 | 0 | 0.0 | 8.7 | 0.05 | 0.07 | 0.07 | 91 | 1013.1 |
| 20260831150546 | 63 | 0 | 0.0 | 8.7 | 0.05 | 0.07 | 0.07 | 90 | 1013.0 |
| 20260831150107 | 63 | 0 | 0.0 | 7.8 | 0.05 | 0.07 | 0.07 | 91 | 1013.0 |
| 20260831145545 | 63 | 0 | 0.9 | 6.1 | 0.05 | 0.07 | 0.07 | 93 | 1013.1 |
| 20260831145046 | 63 | 0 | 0.0 | 0.0 | 0.05 | 0.07 | 0.07 | 93 | 1013.1 |
| 20260831144556 | 62 | 0 | 0.0 | 3.5 | 0.05 | 0.07 | 0.07 | 93 | 1012.9 |
| 20260831144046 | 62 | 0 | 0.0 | 3.5 | 0.05 | 0.07 | 0.07 | 93 | 1012.6 |
| 20260831143551 | 62 | 0 | 0.0 | 3.5 | 0.05 | 0.07 | 0.07 | 93 | 1012.5 |
| 20260831143110 | 61 | 0 | 0.0 | 4.3 | 0.05 | 0.07 | 0.07 | 92 | 1012.8 |
| 20260831142547 | 62 | 227 | 0.0 | 4.3 | 0.05 | 0.07 | 0.07 | 91 | 1012.7 |
| 20260831142047 | 62 | 0 | 0.0 | 3.5 | 0.04 | 0.06 | 0.06 | 89 | 1012.5 |
| 20260831141608 | 63 | 0 | 0.0 | 3.5 | 0.01 | 0.03 | 0.03 | 88 | 1012.4 |
| 20260831141046 | 63 | 0 | 0.0 | 3.5 | 0.00 | 0.01 | 0.01 | 88 | 1012.3 |
| 20260831140546 | 63 | 0 | 0.0 | 3.5 | 0.00 | 0.01 | 0.01 | 87 | 1012.2 |
| 20260831135546 | 63 | 0 | 0.0 | 3.5 | 0.00 | 0.01 | 0.01 | 87 | 1012.1 |
| 20260831135046 | 63 | 0 | 0.0 | 3.5 | 0.00 | 0.01 | 0.01 | 86 | 1012.2 |
| 20260831134606 | 63 | 0 | 0.0 | 4.3 | 0.00 | 0.01 | 0.01 | 85 | 1012.3 |
| 20260831134046 | 63 | 0 | 0.0 | 4.3 | 0.00 | 0.01 | 0.01 | 83 | 1012.2 |
| 20260831133542 | 64 | 0 | 0.0 | 13.9 | 0.00 | 0.01 | 0.01 | 81 | 1012.3 |
| 20260831133107 | 65 | 0 | 4.3 | 13.9 | 0.00 | 0.01 | 0.01 | 77 | 1012.3 |
| 20260831132546 | 66 | 241 | 4.3 | 13.0 | 0.00 | 0.01 | 0.01 | 76 | 1012.0 |
| 20260831132046 | 66 | 0 | 2.6 | 12.2 | 0.00 | 0.01 | 0.01 | 76 | 1012.0 |
| 20260831131603 | 66 | 0 | 2.6 | 13.0 | 0.00 | 0.01 | 0.01 | 74 | 1012.0 |
| 20260831131046 | 67 | 0 | 5.2 | 13.0 | 0.00 | 0.01 | 0.01 | 74 | 1012.0 |
| 20260831130548 | 68 | 237 | 0.9 | 15.6 | 0.00 | 0.01 | 0.01 | 75 | 1011.9 |
| 20260831130110 | 68 | 0 | 0.0 | 15.6 | 0.00 | 0.01 | 0.01 | 75 | 1011.8 |
| 20260831125546 | 68 | 200 | 5.2 | 13.9 | 0.00 | 0.01 | 0.01 | 76 | 1011.7 |
| 20260831125047 | 67 | 0 | 0.0 | 12.2 | 0.00 | 0.01 | 0.01 | 80 | 1011.8 |
| 20260831124610 | 66 | 0 | 2.6 | 13.0 | 0.00 | 0.01 | 0.01 | 80 | 1011.9 |
| 20260831124046 | 66 | 239 | 3.5 | 13.0 | 0.00 | 0.01 | 0.01 | 81 | 1012.0 |
| 20260831123546 | 65 | 245 | 6.1 | 13.0 | 0.00 | 0.01 | 0.01 | 82 | 1011.8 |
| 20260831123106 | 65 | 240 | 3.5 | 13.9 | 0.00 | 0.01 | 0.01 | 83 | 1011.9 |
| 20260831122546 | 65 | 224 | 3.5 | 13.9 | 0.00 | 0.01 | 0.01 | 83 | 1012.0 |
| 20260831122046 | 65 | 232 | 2.6 | 11.3 | 0.00 | 0.01 | 0.01 | 84 | 1011.8 |
| 20260831121603 | 65 | 243 | 2.6 | 14.8 | 0.00 | 0.01 | 0.01 | 84 | 1011.8 |
| 20260831121119 | 65 | 249 | 3.5 | 14.8 | 0.00 | 0.01 | 0.01 | 85 | 1011.6 |
| 20260831120546 | 65 | 203 | 0.9 | 12.2 | 0.00 | 0.01 | 0.01 | 88 | 1011.7 |
| 20260831115545 | 62 | 0 | 5.2 | 13.9 | 0.00 | 0.01 | 0.01 | 89 | 1012.0 |
| 20260831115045 | 62 | 0 | 1.7 | 12.2 | 0.00 | 0.01 | 0.01 | 91 | 1012.0 |
| 20260831114607 | 61 | 0 | 1.7 | 18.2 | 0.00 | 0.01 | 0.01 | 90 | 1012.1 |
| 20260831114042 | 61 | 236 | 3.5 | 21.7 | 0.00 | 0.01 | 0.01 | 89 | 1012.2 |
| 20260831113546 | 61 | 248 | 8.7 | 21.7 | 0.00 | 0.01 | 0.01 | 87 | 1012.4 |
| 20260831113105 | 62 | 218 | 7.8 | 20.9 | 0.00 | 0.00 | 0.00 | 84 | 1012.5 |
| 20260831112545 | 64 | 244 | 7.0 | 28.7 | 0.00 | 0.00 | 0.00 | 79 | 1012.4 |
| 20260831112046 | 65 | 257 | 13.0 | 28.7 | 0.00 | 0.00 | 0.00 | 75 | 1012.2 |
| 20260831111624 | 67 | 192 | 10.4 | 23.5 | 0.00 | 0.00 | 0.00 | 70 | 1012.1 |
| 20260831111046 | 68 | 237 | 2.6 | 20.0 | 0.00 | 0.00 | 0.00 | 66 | 1011.6 |
| 20260831110546 | 68 | 146 | 5.2 | 19.1 | 0.00 | 0.00 | 0.00 | 64 | 1011.5 |
| 20260831110110 | 69 | 234 | 4.3 | 19.1 | 0.00 | 0.00 | 0.00 | 63 | 1011.3 |
| 20260831105546 | 69 | 0 | 6.1 | 18.2 | 0.00 | 0.00 | 0.00 | 63 | 1011.3 |
| 20260831105049 | 70 | 253 | 3.5 | 21.7 | 0.00 | 0.00 | 0.00 | 62 | 1011.2 |
| 20260831104610 | 71 | 218 | 6.1 | 21.7 | 0.00 | 0.00 | 0.00 | 61 | 1011.2 |
| 20260831104046 | 70 | 238 | 8.7 | 21.7 | 0.00 | 0.00 | 0.00 | 62 | 1011.3 |
| 20260831103548 | 70 | 271 | 7.8 | 21.7 | 0.00 | 0.00 | 0.00 | 62 | 1011.4 |
| 20260831103106 | 69 | 223 | 7.8 | 21.7 | 0.00 | 0.00 | 0.00 | 63 | 1011.3 |
| 20260831102545 | 70 | 165 | 7.8 | 20.9 | 0.00 | 0.00 | 0.00 | 62 | 1011.4 |
| 20260831102047 | 70 | 215 | 1.7 | 15.6 | 0.00 | 0.00 | 0.00 | 63 | 1011.3 |
| 20260831101606 | 69 | 0 | 2.6 | 15.6 | 0.00 | 0.00 | 0.00 | 65 | 1011.3 |
| 20260831101046 | 70 | 242 | 2.6 | 16.5 | 0.00 | 0.00 | 0.00 | 63 | 1011.5 |
| 20260831100547 | 69 | 0 | 3.5 | 18.2 | 0.00 | 0.00 | 0.00 | 64 | 1011.4 |
| 20260831100108 | 69 | 0 | 7.8 | 18.2 | 0.00 | 0.00 | 0.00 | 63 | 1011.5 |
| 20260831095545 | 69 | 236 | 10.4 | 19.1 | 0.00 | 0.00 | 0.00 | 61 | 1011.5 |
| 20260831095045 | 70 | 238 | 7.8 | 19.1 | 0.00 | 0.00 | 0.00 | 61 | 1011.6 |
| 20260831094618 | 70 | 257 | 3.5 | 17.4 | 0.00 | 0.00 | 0.00 | 63 | 1011.6 |
| 20260831094047 | 70 | 0 | 1.7 | 18.2 | 0.00 | 0.00 | 0.00 | 66 | 1011.7 |
| 20260831093543 | 68 | 242 | 4.3 | 18.2 | 0.00 | 0.00 | 0.00 | 67 | 1011.9 |
| 20260831093103 | 69 | 246 | 5.2 | 19.1 | 0.00 | 0.00 | 0.00 | 67 | 1012.1 |
| 20260831092547 | 69 | 219 | 4.3 | 20.9 | 0.00 | 0.00 | 0.00 | 67 | 1011.9 |
| 20260831092046 | 69 | 221 | 7.0 | 20.9 | 0.00 | 0.00 | 0.00 | 66 | 1011.8 |
| 20260831091606 | 69 | 246 | 2.6 | 15.6 | 0.00 | 0.00 | 0.00 | 67 | 1011.8 |
| 20260831091046 | 69 | 227 | 4.3 | 15.6 | 0.00 | 0.00 | 0.00 | 67 | 1011.6 |
| 20260831090546 | 69 | 0 | 1.7 | 16.5 | 0.00 | 0.00 | 0.00 | 68 | 1011.7 |
| 20260831090108 | 68 | 220 | 4.3 | 17.4 | 0.00 | 0.00 | 0.00 | 69 | 1011.7 |
| 20260831085546 | 68 | 185 | 6.1 | 17.4 | 0.00 | 0.00 | 0.00 | 68 | 1011.8 |
| 20260831085046 | 68 | 239 | 7.0 | 17.4 | 0.00 | 0.00 | 0.00 | 68 | 1011.7 |
| 20260831084557 | 67 | 275 | 8.7 | 17.4 | 0.00 | 0.00 | 0.00 | 68 | 1011.7 |
| 20260831084045 | 68 | 271 | 1.7 | 17.4 | 0.00 | 0.00 | 0.00 | 70 | 1011.6 |
| 20260831083546 | 68 | 254 | 6.1 | 17.4 | 0.00 | 0.00 | 0.00 | 71 | 1011.6 |
| 20260831083106 | 68 | 222 | 5.2 | 17.4 | 0.00 | 0.00 | 0.00 | 71 | 1011.6 |
| 20260831082546 | 67 | 210 | 8.7 | 23.5 | 0.00 | 0.00 | 0.00 | 71 | 1011.5 |
| 20260831082046 | 67 | 0 | 8.7 | 23.5 | 0.00 | 0.00 | 0.00 | 72 | 1011.5 |
| 20260831081609 | 67 | 0 | 4.3 | 18.2 | 0.00 | 0.00 | 0.00 | 74 | 1011.6 |
| 20260831081043 | 66 | 220 | 6.1 | 18.2 | 0.00 | 0.00 | 0.00 | 75 | 1011.6 |
| 20260831080546 | 66 | 0 | 1.7 | 13.9 | 0.00 | 0.00 | 0.00 | 78 | 1011.6 |
| 20260831080104 | 66 | 0 | 1.7 | 13.0 | 0.00 | 0.00 | 0.00 | 77 | 1011.6 |
| 20260831075545 | 66 | 0 | 1.7 | 13.0 | 0.00 | 0.00 | 0.00 | 79 | 1011.7 |
| 20260831075046 | 65 | 235 | 1.7 | 13.0 | 0.00 | 0.00 | 0.00 | 80 | 1011.9 |
| 20260831074604 | 65 | 229 | 2.6 | 13.0 | 0.00 | 0.00 | 0.00 | 78 | 1011.8 |
| 20260831074048 | 65 | 261 | 0.9 | 13.9 | 0.00 | 0.00 | 0.00 | 79 | 1011.8 |
| 20260831073544 | 65 | 239 | 1.7 | 13.9 | 0.00 | 0.00 | 0.00 | 80 | 1011.8 |
| 20260831073106 | 65 | 0 | 3.5 | 13.9 | 0.00 | 0.00 | 0.00 | 79 | 1011.9 |
| 20260831072545 | 65 | 252 | 0.9 | 10.4 | 0.00 | 0.00 | 0.00 | 80 | 1011.9 |
| 20260831072045 | 65 | 234 | 1.7 | 10.4 | 0.00 | 0.00 | 0.00 | 80 | 1012.0 |
| 20260831071604 | 65 | 0 | 2.6 | 11.3 | 0.00 | 0.00 | 0.00 | 80 | 1011.9 |
| 20260831071042 | 65 | 220 | 0.0 | 11.3 | 0.00 | 0.00 | 0.00 | 81 | 1011.9 |
| 20260831070546 | 65 | 206 | 2.6 | 8.7 | 0.00 | 0.00 | 0.00 | 81 | 1011.8 |
| 20260831065546 | 65 | 227 | 0.0 | 5.2 | 0.00 | 0.01 | 0.00 | 83 | 1011.8 |
| 20260831065046 | 64 | 0 | 0.0 | 7.0 | 0.00 | 0.01 | 0.00 | 84 | 1011.8 |
| 20260831064558 | 64 | 227 | 0.0 | 10.4 | 0.00 | 0.01 | 0.00 | 85 | 1011.8 |
| 20260831064045 | 64 | 209 | 0.0 | 10.4 | 0.00 | 0.01 | 0.00 | 85 | 1011.8 |
| 20260831063543 | 63 | 223 | 0.0 | 9.6 | 0.00 | 0.01 | 0.00 | 85 | 1011.9 |
| 20260831063102 | 63 | 0 | 0.9 | 9.6 | 0.00 | 0.01 | 0.00 | 85 | 1011.8 |
| 20260831062546 | 63 | 0 | 0.9 | 9.6 | 0.00 | 0.01 | 0.00 | 85 | 1011.9 |
| 20260831062043 | 63 | 0 | 0.9 | 13.9 | 0.00 | 0.01 | 0.00 | 86 | 1011.8 |
| 20260831061607 | 63 | 0 | 0.9 | 13.9 | 0.00 | 0.01 | 0.00 | 86 | 1011.7 |
| 20260831061044 | 63 | 0 | 0.0 | 7.0 | 0.00 | 0.01 | 0.00 | 87 | 1011.7 |
| 20260831060543 | 63 | 0 | 0.9 | 8.7 | 0.00 | 0.01 | 0.00 | 87 | 1011.7 |
| 20260831060107 | 62 | 0 | 0.0 | 8.7 | 0.00 | 0.01 | 0.00 | 88 | 1011.6 |
| 20260831055543 | 62 | 0 | 0.0 | 5.2 | 0.00 | 0.01 | 0.00 | 88 | 1011.6 |
| 20260831055046 | 62 | 0 | 0.0 | 7.8 | 0.00 | 0.01 | 0.00 | 88 | 1011.5 |
| 20260831054557 | 62 | 0 | 0.0 | 7.8 | 0.00 | 0.01 | 0.00 | 88 | 1011.7 |
| 20260831054046 | 62 | 235 | 0.0 | 7.8 | 0.00 | 0.01 | 0.00 | 89 | 1011.5 |
| 20260831053546 | 61 | 213 | 0.0 | 7.8 | 0.00 | 0.01 | 0.00 | 89 | 1011.5 |
| 20260831053108 | 62 | 0 | 1.7 | 8.7 | 0.00 | 0.01 | 0.00 | 89 | 1011.6 |
| 20260831052544 | 62 | 0 | 0.9 | 8.7 | 0.00 | 0.01 | 0.00 | 89 | 1011.6 |
| 20260831052041 | 62 | 240 | 0.0 | 8.7 | 0.00 | 0.01 | 0.00 | 89 | 1011.6 |
| 20260831051602 | 61 | 0 | 1.7 | 8.7 | 0.00 | 0.01 | 0.00 | 90 | 1011.7 |
| 20260831051046 | 61 | 0 | 0.9 | 7.0 | 0.00 | 0.01 | 0.00 | 90 | 1011.6 |
| 20260831050545 | 61 | 0 | 0.0 | 6.1 | 0.00 | 0.01 | 0.00 | 90 | 1011.6 |
| 20260831050116 | 61 | 0 | 0.9 | 5.2 | 0.00 | 0.01 | 0.00 | 90 | 1011.6 |
| 20260831045546 | 61 | 0 | 0.0 | 6.1 | 0.00 | 0.01 | 0.00 | 90 | 1011.5 |
| 20260831045043 | 61 | 206 | 0.0 | 6.1 | 0.00 | 0.01 | 0.00 | 90 | 1011.5 |
| 20260831044622 | 61 | 202 | 0.0 | 5.2 | 0.00 | 0.01 | 0.00 | 90 | 1011.4 |
| 20260831044043 | 61 | 0 | 0.0 | 5.2 | 0.00 | 0.01 | 0.00 | 89 | 1011.4 |
| 20260831043545 | 61 | 0 | 0.0 | 5.2 | 0.00 | 0.01 | 0.00 | 89 | 1011.4 |
| 20260831043103 | 61 | 0 | 0.0 | 5.2 | 0.00 | 0.01 | 0.00 | 89 | 1011.4 |
| 20260831042546 | 61 | 0 | 0.0 | 2.6 | 0.00 | 0.01 | 0.00 | 89 | 1011.3 |
| 20260831042046 | 61 | 0 | 0.0 | 2.6 | 0.00 | 0.01 | 0.00 | 90 | 1011.4 |
| 20260831041615 | 61 | 0 | 0.0 | 5.2 | 0.00 | 0.01 | 0.00 | 89 | 1011.3 |
| 20260831041046 | 61 | 0 | 0.0 | 5.2 | 0.00 | 0.01 | 0.00 | 89 | 1011.2 |
| 20260831040543 | 61 | 0 | 0.0 | 4.3 | 0.00 | 0.01 | 0.00 | 89 | 1011.2 |
| 20260831040107 | 61 | 0 | 0.0 | 4.3 | 0.00 | 0.01 | 0.00 | 89 | 1011.3 |
| 20260831035542 | 61 | 0 | 0.0 | 5.2 | 0.00 | 0.01 | 0.00 | 89 | 1011.2 |
| 20260831035045 | 61 | 0 | 0.0 | 5.2 | 0.00 | 0.01 | 0.00 | 89 | 1011.1 |
| 20260831034605 | 61 | 0 | 0.0 | 2.6 | 0.00 | 0.01 | 0.00 | 89 | 1011.1 |
| 20260831034042 | 61 | 0 | 0.0 | 2.6 | 0.00 | 0.01 | 0.00 | 89 | 1011.2 |
| 20260831033542 | 61 | 0 | 0.0 | 2.6 | 0.00 | 0.01 | 0.00 | 90 | 1011.3 |
| 20260831033104 | 61 | 0 | 0.0 | 0.0 | 0.00 | 0.01 | 0.00 | 90 | 1011.4 |
| 20260831032544 | 61 | 0 | 0.0 | 0.0 | 0.00 | 0.01 | 0.00 | 90 | 1011.3 |
| 20260831032043 | 61 | 0 | 0.0 | 0.0 | 0.00 | 0.01 | 0.00 | 89 | 1011.4 |
| 20260831031602 | 61 | 0 | 0.0 | 0.0 | 0.00 | 0.01 | 0.00 | 89 | 1011.4 |
| 20260831031047 | 61 | 0 | 0.0 | 5.2 | 0.00 | 0.01 | 0.00 | 88 | 1011.4 |
| 20260831030547 | 61 | 0 | 0.0 | 5.2 | 0.00 | 0.01 | 0.00 | 87 | 1011.3 |
| 20260831030107 | 62 | 215 | 0.0 | 2.6 | 0.00 | 0.01 | 0.00 | 85 | 1011.3 |
| 20260831025545 | 62 | 0 | 0.0 | 7.0 | 0.00 | 0.01 | 0.00 | 84 | 1011.4 |
| 20260831025135 | 63 | 0 | 0.0 | 7.8 | 0.00 | 0.00 | 0.00 | 81 | 1011.3 |
| 20260831024627 | 64 | 0 | 0.9 | 7.8 | 0.00 | 0.00 | 0.00 | 77 | 1011.3 |
| 20260831024042 | 65 | 199 | 0.9 | 7.8 | 0.00 | 0.00 | 0.00 | 75 | 1011.3 |
| 20260831023542 | 64 | 0 | 0.0 | 6.1 | 0.00 | 0.00 | 0.00 | 74 | 1011.1 |
| 20260831023106 | 64 | 0 | 0.0 | 5.2 | 0.00 | 0.00 | 0.00 | 75 | 1011.0 |
| 20260831022604 | 64 | 0 | 0.0 | 7.8 | 0.00 | 0.00 | 0.00 | 75 | 1010.9 |
| 20260831022043 | 64 | 0 | 0.0 | 7.8 | 0.00 | 0.00 | 0.00 | 75 | 1010.9 |
| 20260831021558 | 64 | 0 | 0.0 | 4.3 | 0.00 | 0.00 | 0.00 | 76 | 1010.8 |
| 20260831021046 | 63 | 175 | 0.0 | 4.3 | 0.00 | 0.00 | 0.00 | 76 | 1011.0 |
| 20260831020546 | 63 | 0 | 0.0 | 0.0 | 0.00 | 0.00 | 0.00 | 76 | 1010.9 |
| 20260831020117 | 63 | 0 | 0.0 | 0.0 | 0.00 | 0.00 | 0.00 | 76 | 1010.7 |
| 20260831015545 | 64 | 0 | 0.0 | 0.0 | 0.00 | 0.03 | 0.00 | 76 | 1010.7 |
| 20260831015135 | 64 | 0 | 0.0 | 0.0 | 0.00 | 0.03 | 0.00 | 76 | 1010.7 |
| 20260831014611 | 64 | 0 | 0.0 | 0.0 | 0.00 | 0.03 | 0.00 | 75 | 1010.8 |
| 20260831014045 | 64 | 0 | 0.0 | 1.7 | 0.00 | 0.03 | 0.00 | 74 | 1010.7 |
| 20260831013652 | 64 | 0 | 0.0 | 4.3 | 0.00 | 0.03 | 0.00 | 74 | 1010.7 |
| 20260831013059 | 64 | 0 | 0.0 | 4.3 | 0.00 | 0.03 | 0.00 | 75 | 1010.9 |
| 20260831012543 | 64 | 201 | 0.0 | 4.3 | 0.00 | 0.03 | 0.00 | 75 | 1011.2 |
| 20260831012045 | 64 | 0 | 0.0 | 3.5 | 0.00 | 0.03 | 0.00 | 75 | 1011.3 |
| 20260831011614 | 64 | 0 | 0.0 | 1.7 | 0.00 | 0.03 | 0.00 | 75 | 1011.3 |
| 20260831011042 | 64 | 0 | 0.0 | 1.7 | 0.00 | 0.03 | 0.00 | 75 | 1011.5 |
| 20260831010542 | 64 | 0 | 0.0 | 1.7 | 0.00 | 0.03 | 0.00 | 75 | 1011.5 |
| 20260831010107 | 64 | 0 | 0.0 | 0.0 | 0.00 | 0.03 | 0.00 | 75 | 1011.4 |
| 20260831005542 | 64 | 0 | 0.0 | 0.0 | 0.00 | 0.09 | 0.00 | 75 | 1011.5 |
| 20260831005043 | 64 | 0 | 0.0 | 0.0 | 0.00 | 0.09 | 0.00 | 75 | 1011.4 |
| 20260831004606 | 64 | 0 | 0.0 | 0.0 | 0.00 | 0.09 | 0.00 | 75 | 1011.3 |
| 20260831004044 | 64 | 0 | 0.0 | 0.0 | 0.00 | 0.09 | 0.00 | 75 | 1011.4 |
| 20260831003543 | 64 | 0 | 0.0 | 0.0 | 0.00 | 0.09 | 0.00 | 76 | 1011.4 |
| 20260831003108 | 64 | 0 | 0.0 | 0.0 | 0.00 | 0.09 | 0.00 | 76 | 1011.5 |
| 20260831002542 | 64 | 0 | 0.0 | 0.0 | 0.00 | 0.09 | 0.00 | 76 | 1011.7 |
| 20260831002043 | 64 | 0 | 0.0 | 0.0 | 0.00 | 0.09 | 0.00 | 77 | 1011.6 |
| 20260831001603 | 64 | 0 | 0.0 | 0.0 | 0.00 | 0.09 | 0.00 | 77 | 1011.8 |
| 20260831001045 | 64 | 0 | 0.0 | 0.0 | 0.00 | 0.09 | 0.00 | 77 | 1011.6 |
| 20260831000542 | 63 | 0 | 0.0 | 0.0 | 0.00 | 0.09 | 0.00 | 78 | 1011.5 |
| 20260831000101 | 63 | 0 | 0.0 | 0.0 | 0.00 | 0.09 | 0.00 | 79 | 1011.6 |
| 20260830235542 | 63 | 0 | 0.0 | 0.0 | 0.00 | 0.09 | 0.00 | 79 | 1011.7 |
| 20260830235044 | 63 | 0 | 0.0 | 0.0 | 0.00 | 0.09 | 0.00 | 79 | 1011.7 |
| 20260830234614 | 63 | 0 | 0.0 | 0.0 | 0.00 | 0.09 | 0.00 | 79 | 1011.8 |
| 20260830234041 | 63 | 0 | 0.0 | 0.0 | 0.00 | 0.09 | 0.00 | 79 | 1011.6 |
| 20260830233542 | 63 | 0 | 0.0 | 0.0 | 0.00 | 0.09 | 0.00 | 79 | 1011.8 |
| 20260830233106 | 63 | 0 | 0.0 | 0.0 | 0.00 | 0.09 | 0.00 | 79 | 1011.7 |
| 20260830232542 | 63 | 0 | 0.0 | 0.0 | 0.00 | 0.09 | 0.00 | 79 | 1011.8 |
| 20260830232042 | 63 | 0 | 0.0 | 0.0 | 0.00 | 0.09 | 0.00 | 79 | 1011.8 |
| 20260830231605 | 63 | 0 | 0.0 | 0.0 | 0.00 | 0.09 | 0.00 | 79 | 1011.8 |
| 20260830231041 | 63 | 0 | 0.0 | 0.0 | 0.00 | 0.09 | 0.00 | 78 | 1011.9 |
| 20260830230543 | 63 | 0 | 0.0 | 0.0 | 0.00 | 0.09 | 0.00 | 78 | 1011.9 |
| 20260830230104 | 63 | 0 | 0.0 | 0.0 | 0.00 | 0.09 | 0.00 | 78 | 1011.8 |
| 20260830225542 | 64 | 0 | 0.0 | 0.0 | 0.00 | 0.09 | 0.00 | 78 | 1011.9 |
| 20260830225046 | 64 | 0 | 0.0 | 0.0 | 0.00 | 0.09 | 0.00 | 77 | 1012.0 |
| 20260830224607 | 64 | 0 | 0.0 | 0.0 | 0.00 | 0.09 | 0.00 | 77 | 1012.2 |
| 20260830224046 | 64 | 0 | 0.0 | 0.0 | 0.00 | 0.09 | 0.00 | 77 | 1012.2 |
| 20260830223546 | 64 | 0 | 0.0 | 0.0 | 0.00 | 0.09 | 0.00 | 77 | 1012.2 |
| 20260830223108 | 64 | 0 | 0.0 | 0.0 | 0.00 | 0.09 | 0.00 | 78 | 1012.2 |
| 20260830222542 | 64 | 0 | 0.0 | 0.0 | 0.00 | 0.09 | 0.00 | 78 | 1012.2 |
| 20260830222138 | 64 | 0 | 0.0 | 0.0 | 0.00 | 0.09 | 0.00 | 78 | 1012.3 |
| 20260830221602 | 64 | 0 | 0.0 | 0.0 | 0.00 | 0.09 | 0.00 | 77 | 1012.3 |
| 20260830221046 | 64 | 0 | 0.0 | 0.0 | 0.00 | 0.09 | 0.00 | 77 | 1012.4 |
| 20260830220545 | 64 | 0 | 0.0 | 0.0 | 0.00 | 0.09 | 0.00 | 76 | 1012.3 |
| 20260830215545 | 64 | 0 | 0.0 | 0.0 | 0.00 | 0.09 | 0.09 | 76 | 1012.6 |
| 20260830215046 | 64 | 0 | 0.0 | 0.0 | 0.00 | 0.09 | 0.09 | 77 | 1012.5 |
| 20260830214607 | 64 | 0 | 0.0 | 0.0 | 0.00 | 0.09 | 0.09 | 77 | 1012.5 |
| 20260830214044 | 64 | 0 | 0.0 | 0.0 | 0.00 | 0.09 | 0.09 | 77 | 1012.6 |
| 20260830213542 | 64 | 0 | 0.0 | 0.0 | 0.00 | 0.09 | 0.09 | 77 | 1012.7 |
| 20260830213108 | 64 | 0 | 0.0 | 0.0 | 0.00 | 0.09 | 0.09 | 77 | 1012.7 |